[[{"header":{"parameterUnit":"m.s-1","parameterCategory":1,"la1":30.2991,"la2":30.254,"lo1":-89.0895,"lo2":-89.0444,"dy":0.0017,"dx":0.0017,"nx":28,"ny":28,"refTime":"2023-09-08T03:00:00:Z","depth":0,"parameterNumber":2,"parameterNumberName":"U-component_of_WINDS"},"data":[0,0,0,0,0,0,0,0,0,0,0,0,0,0,0,0,0,0,0,0,0,0,0,0,0,0,0,0,0,0,0,0,0,0,0,0,0,0,0,0,0,0,0,0,0,0,0,0,0,0,0,0,0,0,0,0,0,0,-2.5277,-2.5277,0,-2.5304,-2.5304,-2.5304,-2.5184,-2.518,-2.5177,-2.5173,-2.5203,-2.5207,-2.5211,0,0,0,0,0,0,0,0,0,0,0,0,0,-2.5122,-2.5126,-2.5277,-2.5277,-2.5278,-2.5304,-2.5304,-2.5304,-2.5184,-2.518,-2.5176,-2.5172,-2.5202,-2.5206,-2.5211,0,0,0,0,0,0,0,0,0,0,0,0,0,-2.5174,-2.5127,-2.5277,-2.5221,-2.5216,-2.5303,-2.5304,-2.5304,-2.5185,-2.518,-2.5175,-2.517,-2.52,-2.5206,-2.5212,-2.5355,0,0,-2.5231,-2.5233,0,0,0,0,0,0,0,0,-2.5171,-2.5179,-2.5229,-2.5225,-2.522,-2.5235,-2.526,-2.5321,-2.5187,-2.5197,-2.5173,-2.5167,-2.5218,-2.5222,-2.5239,-2.5357,-2.5358,-2.5231,-2.5235,-2.5237,-2.5239,0,0,0,0,0,0,0,-2.5167,-2.5178,-2.5287,-2.5229,-2.5224,-2.5194,-2.5196,-2.5271,-2.5237,-2.5196,-2.5187,-2.5192,-2.5214,-2.5233,-2.5239,-2.5358,-2.5231,-2.5236,-2.524,-2.5242,-2.5594,-2.56,0,0,0,0,0,0,-2.5171,-2.5175,-2.5287,-2.5288,-2.5182,-2.5202,-2.5203,-2.5235,-2.5236,-2.5231,-2.5196,-2.5186,-2.5225,-2.5232,-2.5239,-2.5407,-2.5237,-2.5243,-2.5247,-2.5588,-2.5595,-2.5601,0,0,0,0,0,0,-2.5168,-2.5182,-2.5285,-2.5229,-2.524,-2.521,-2.5247,-2.5239,-2.5257,-2.5236,-2.5229,-2.5222,-2.5222,-2.5231,-2.5327,-2.5407,-2.5246,-2.5251,-2.5582,-2.5591,-2.5598,-2.5745,0,0,0,0,0,0,-2.5164,-2.5182,-2.5236,-2.5232,-2.5244,-2.5373,-2.5252,-2.5243,-2.5268,-2.5255,-2.5258,-2.5254,-2.5218,-2.5319,-2.5333,-2.5412,-2.5256,-2.5575,-2.5586,-2.5596,-2.5733,-2.5757,-2.5778,0,0,0,0,0,-2.5159,-2.5277,-2.524,-2.5254,-2.5311,-2.5378,-2.5385,-2.5341,-2.5275,-2.5329,-2.5315,-2.5254,-2.5395,-2.5329,-2.5345,-2.5427,-2.5569,-2.5583,-2.5595,-2.5722,-2.5752,-2.5778,0,0,0,0,0,0,-2.5293,-2.5275,-2.5234,-2.5353,-2.5368,-2.5358,-2.5425,-2.5374,-2.5409,-2.5395,-2.5339,-2.5341,-2.5447,-2.5446,-2.5373,-2.5565,-2.5471,-2.5487,-2.5562,-2.5591,-2.5613,-2.5612,-2.5261,0,0,0,0,0,-2.5336,-2.5392,-2.5373,-2.548,-2.549,-2.5456,-2.5484,-2.5448,-2.5462,-2.5468,-2.5461,-2.5476,-2.5524,-2.5557,-2.5599,-2.5731,-2.573,-2.5795,-2.5817,-2.5836,-2.5852,-2.5921,-2.595,-2.5643,-2.5643,-2.5643,0,0,-2.5426,-2.5423,-2.5462,-2.5507,-2.5514,-2.5574,-2.5463,-2.553,-2.5573,-2.5478,-2.5569,-2.5564,-2.5577,-2.5692,-2.5742,-2.5695,-2.5936,-2.5852,-2.5868,-2.5873,-2.5937,-2.5966,-2.5992,-2.5652,-2.5651,-2.5649,0,0,-2.5621,-2.5624,-2.5714,-2.5723,-2.5735,-2.5711,-2.5733,-2.573,-2.5723,-2.5813,-2.5742,-2.5793,-2.5876,-2.5889,-2.5906,-2.6104,-2.6049,-2.6119,-2.6239,-2.6307,-2.6331,-2.6352,-2.6424,-2.645,-2.6134,-2.6134,-2.6135,0,-2.5732,-2.5818,-2.5767,-2.5839,-2.5861,-2.5775,-2.5866,-2.5877,-2.5903,-2.592,-2.5866,-2.5968,-2.5971,-2.6087,-2.6136,-2.6152,-2.6175,-2.612,-2.6332,-2.6352,-2.6371,-2.6439,-2.6466,-2.6143,-2.6142,-2.6141,-2.614,0,-2.5954,-2.6015,-2.6086,-2.6112,-2.6141,-2.6223,-2.6183,-2.622,-2.6181,-2.6163,-2.6255,-2.6256,-2.6297,-2.6321,-2.6285,-2.6433,-2.6403,-2.6341,-2.6245,-2.641,-2.6472,-2.6498,-2.6155,-2.6152,-2.615,-2.6148,0,0,-2.6237,-2.6232,-2.6259,-2.6269,-2.6275,-2.6321,-2.6398,-2.6437,-2.647,-2.6489,-2.6553,-2.6624,-2.6567,-2.6587,-2.655,-2.661,-2.6767,-2.654,-2.654,-2.6584,-2.693,-2.6978,-2.7009,-2.6729,-2.6734,-2.6738,-2.693,0,-2.6429,-2.656,-2.6515,-2.6648,-2.6703,-2.6622,-2.6689,-2.67,-2.6685,-2.673,-2.6712,-2.6765,-2.6684,-2.6696,-2.6751,-2.6737,-2.6836,-2.6722,-2.6789,-2.6792,-2.679,-2.7041,-2.7092,-2.7273,-2.6954,-2.6958,-2.6961,0,-2.6671,-2.67,-2.6839,-2.6834,-2.6855,-2.6916,-2.6948,-2.6992,-2.7002,-2.6987,-2.7008,-2.6959,-2.7034,-2.6936,-2.7039,-2.6962,-2.6986,-2.6983,-2.6989,-2.6995,-2.6888,-2.7056,-2.733,-2.7358,-2.6998,-2.6995,-2.6993,0,-2.6864,-2.6938,-2.703,-2.7041,-2.7038,-2.7083,-2.7084,-2.7088,-2.7115,-2.7142,-2.7159,-2.7195,-2.7216,-2.7245,-2.7206,-2.7139,-2.7315,-2.7214,-2.7305,-2.7307,-2.7348,-2.7346,-2.7632,-2.7361,-2.7361,-2.736,-2.736,0,-2.7084,-2.7173,-2.7117,-2.7174,-2.727,-2.7217,-2.7314,-2.7306,-2.731,-2.7365,-2.7296,-2.7348,-2.7293,-2.734,-2.731,-2.74,-2.741,-2.74,-2.7391,-2.7407,-2.7409,-2.7424,-2.7411,-2.7367,-2.7366,-2.7364,-2.7363,0,-2.7318,-2.7284,-2.7379,-2.7368,-2.7367,-2.7439,-2.7428,-2.7481,-2.746,-2.7529,-2.7542,-2.751,-2.7562,-2.7526,-2.7578,-2.7557,-2.7675,-2.7648,-2.7672,-2.7666,-2.7759,-2.7751,-2.8065,-2.8104,-2.7808,-2.7811,-2.7813,0,-2.7462,-2.7528,-2.7523,-2.7554,-2.7559,-2.7609,-2.7635,-2.7585,-2.7615,-2.763,-2.7681,-2.7727,-2.7761,-2.7847,-2.7829,-2.7868,-2.7842,-2.7949,-2.7848,-2.7861,-2.7845,-2.7842,-2.7849,-2.7971,-2.7974,-2.7977,-2.7979,0,-2.7721,-2.77,-2.774,-2.7774,-2.7807,-2.7831,-2.785,-2.7879,-2.7828,-2.7865,-2.7917,-2.7943,-2.7995,-2.8041,-2.8073,-2.8074,-2.8019,-2.8011,-2.8034,-2.8052,-2.8064,-2.8059,-2.773,-2.8005,-2.8002,-2.8,-2.7999,-2.7998,-2.7914,-2.7969,-2.7974,-2.802,-2.8029,-2.8048,-2.8096,-2.8081,-2.8123,-2.8161,-2.8128,-2.819,-2.8197,-2.8234,-2.8241,-2.8289,-2.8245,-2.8279,-2.8288,-2.8297,-2.8311,-2.8055,-2.8295,-2.8294,-2.8293,-2.8292,-2.8292,0,-2.8171,-2.8169,-2.8212,-2.824,-2.8277,-2.822,-2.8237,-2.8272,-2.8327,-2.8338,-2.8372,-2.8432,-2.8476,-2.846,-2.8499,-2.854,-2.8516,-2.8552,-2.8549,-2.8551,-2.8347,-2.8324,-2.8571,-2.8571,-2.8571,-2.8571,-2.8571,-2.8571,-2.8308,-2.8398,-2.8378,-2.847,-2.8468,-2.8528,-2.8543,-2.856,-2.8568,-2.8637,-2.8673,-2.8662,-2.8662,-2.87,-2.8738,-2.8732,-2.875,-2.8796,-2.8781,-2.8592,-2.8565,-2.8539,-2.8516,-2.88,-2.88,-2.898,-2.8982,-2.8984]},{"header":{"parameterUnit":"m.s-1","parameterCategory":1,"la1":30.2991,"la2":30.254,"lo1":-89.0895,"lo2":-89.0444,"dy":0.0017,"dx":0.0017,"nx":28,"ny":28,"refTime":"2023-09-08T03:00:00:Z","depth":0,"parameterNumber":3,"parameterNumberName":"V-component_of_WINDS"},"data":[0,0,0,0,0,0,0,0,0,0,0,0,0,0,0,0,0,0,0,0,0,0,0,0,0,0,0,0,0,0,0,0,0,0,0,0,0,0,0,0,0,0,0,0,0,0,0,0,0,0,0,0,0,0,0,0,0,0,-3.3304,-3.3305,0,-3.3362,-3.3362,-3.3363,-3.3323,-3.3321,-3.3319,-3.3318,-3.3374,-3.3377,-3.338,0,0,0,0,0,0,0,0,0,0,0,0,0,-3.3155,-3.3158,-3.3304,-3.3305,-3.3306,-3.3362,-3.3362,-3.3363,-3.3323,-3.3321,-3.3319,-3.3317,-3.3373,-3.3377,-3.338,0,0,0,0,0,0,0,0,0,0,0,0,0,-3.3217,-3.3159,-3.3304,-3.3292,-3.3292,-3.3361,-3.3362,-3.3363,-3.3324,-3.3321,-3.3318,-3.3316,-3.3372,-3.3376,-3.3381,-3.3464,0,0,-3.3395,-3.3397,0,0,0,0,0,0,0,0,-3.3214,-3.3223,-3.3293,-3.3293,-3.3293,-3.3332,-3.333,-3.3397,-3.3324,-3.3312,-3.3318,-3.3314,-3.3362,-3.3367,-3.3384,-3.3467,-3.3469,-3.3396,-3.3399,-3.3401,-3.3402,0,0,0,0,0,0,0,-3.3209,-3.322,-3.3327,-3.3294,-3.3294,-3.3283,-3.3289,-3.3343,-3.3351,-3.3312,-3.331,-3.3317,-3.3361,-3.338,-3.3385,-3.347,-3.3396,-3.34,-3.3403,-3.3405,-3.3621,-3.3624,0,0,0,0,0,0,-3.3207,-3.3217,-3.3325,-3.3328,-3.3246,-3.3288,-3.3294,-3.3322,-3.335,-3.3352,-3.3319,-3.3315,-3.3373,-3.338,-3.3387,-3.3485,-3.3401,-3.3405,-3.3408,-3.3618,-3.3622,-3.3625,0,0,0,0,0,0,-3.3204,-3.3217,-3.3323,-3.3272,-3.3284,-3.3293,-3.3325,-3.3325,-3.3343,-3.3356,-3.3357,-3.3337,-3.3371,-3.338,-3.3445,-3.3486,-3.3407,-3.3412,-3.3615,-3.3619,-3.3623,-3.3682,0,0,0,0,0,0,-3.3199,-3.3216,-3.3249,-3.3273,-3.3287,-3.3381,-3.3328,-3.3328,-3.3352,-3.3347,-3.3372,-3.3374,-3.337,-3.3438,-3.345,-3.3491,-3.3415,-3.3611,-3.3617,-3.3622,-3.3676,-3.3688,-3.3697,0,0,0,0,0,-3.3194,-3.3263,-3.3251,-3.3264,-3.3329,-3.3384,-3.3392,-3.3386,-3.3355,-3.3387,-3.3395,-3.3373,-3.348,-3.3445,-3.3458,-3.3501,-3.3609,-3.3615,-3.3622,-3.3671,-3.3685,-3.3697,0,0,0,0,0,0,-3.3242,-3.3266,-3.3252,-3.3331,-3.3356,-3.3377,-3.3417,-3.3401,-3.3435,-3.3428,-3.3419,-3.3425,-3.3492,-3.3503,-3.3464,-3.3582,-3.3539,-3.3548,-3.3573,-3.3586,-3.3596,-3.3592,-3.3419,0,0,0,0,0,-3.3262,-3.3306,-3.3323,-3.3391,-3.3404,-3.3409,-3.3432,-3.3426,-3.3451,-3.3461,-3.3473,-3.3497,-3.3536,-3.3562,-3.3598,-3.3678,-3.3681,-3.3714,-3.3724,-3.3733,-3.3741,-3.3782,-3.3796,-3.3646,-3.3646,-3.3646,0,0,-3.3303,-3.3321,-3.335,-3.3401,-3.3419,-3.3463,-3.3418,-3.3467,-3.3499,-3.3468,-3.3529,-3.3539,-3.3565,-3.3637,-3.367,-3.3648,-3.3783,-3.3741,-3.3748,-3.3751,-3.379,-3.3804,-3.3816,-3.3651,-3.365,-3.3649,0,0,-3.3401,-3.342,-3.3477,-3.3496,-3.3525,-3.3527,-3.3541,-3.3564,-3.357,-3.3632,-3.3609,-3.3646,-3.3714,-3.3733,-3.3751,-3.3854,-3.3834,-3.3866,-3.3921,-3.3961,-3.3973,-3.3983,-3.4018,-3.4031,-3.3874,-3.3874,-3.3874,0,-3.3448,-3.3515,-3.3508,-3.3559,-3.3581,-3.3556,-3.3613,-3.3631,-3.367,-3.3685,-3.3661,-3.3744,-3.376,-3.3835,-3.386,-3.3877,-3.389,-3.3863,-3.3972,-3.3982,-3.3992,-3.4025,-3.4038,-3.3878,-3.3878,-3.3877,-3.3877,0,-3.357,-3.3617,-3.366,-3.3698,-3.3725,-3.3779,-3.3779,-3.3807,-3.3798,-3.3802,-3.3864,-3.3882,-3.3921,-3.3939,-3.393,-3.4012,-3.3998,-3.3973,-3.393,-3.401,-3.4041,-3.4054,-3.3883,-3.3882,-3.3881,-3.388,0,0,-3.37,-3.3734,-3.3749,-3.3766,-3.3795,-3.383,-3.3881,-3.392,-3.3943,-3.397,-3.4012,-3.4069,-3.4046,-3.4067,-3.406,-3.4095,-3.4173,-3.4066,-3.4066,-3.4084,-3.4263,-3.428,-3.4295,-3.4161,-3.4163,-3.4165,-3.426,0,-3.3798,-3.3889,-3.3884,-3.3968,-3.401,-3.3986,-3.403,-3.4052,-3.4057,-3.4092,-3.4097,-3.4137,-3.4104,-3.4116,-3.415,-3.4157,-3.4209,-3.415,-3.4198,-3.4199,-3.4191,-3.4312,-3.4331,-3.442,-3.4272,-3.4274,-3.4276,0,-3.3925,-3.3956,-3.4045,-3.4066,-3.4084,-3.4124,-3.4158,-3.4192,-3.4215,-3.4216,-3.4239,-3.4226,-3.4276,-3.4232,-3.43,-3.426,-3.4279,-3.4285,-3.4288,-3.4291,-3.4242,-3.4317,-3.4448,-3.4461,-3.4295,-3.4294,-3.4292,0,-3.4008,-3.4073,-3.4134,-3.4149,-3.4176,-3.4204,-3.4217,-3.4237,-3.426,-3.429,-3.4304,-3.4339,-3.4357,-3.4384,-3.4379,-3.4348,-3.4448,-3.4404,-3.4449,-3.4449,-3.447,-3.4469,-3.4605,-3.4485,-3.4485,-3.4484,-3.4484,0,-3.4117,-3.4172,-3.4172,-3.421,-3.427,-3.4263,-3.4322,-3.4331,-3.4349,-3.4386,-3.4368,-3.4403,-3.4396,-3.443,-3.4427,-3.4483,-3.4492,-3.4493,-3.4491,-3.4494,-3.4494,-3.4506,-3.4499,-3.4488,-3.4487,-3.4486,-3.4486,0,-3.4221,-3.4223,-3.4288,-3.4308,-3.4314,-3.4357,-3.4373,-3.4408,-3.4411,-3.4459,-3.4469,-3.4474,-3.4514,-3.4512,-3.4558,-3.4555,-3.4623,-3.4615,-3.4615,-3.4613,-3.4658,-3.4653,-3.4805,-3.4824,-3.4693,-3.4694,-3.4695,0,-3.429,-3.4332,-3.4356,-3.438,-3.4394,-3.4433,-3.4456,-3.4451,-3.4475,-3.4504,-3.4535,-3.4573,-3.4603,-3.4667,-3.4674,-3.4707,-3.4699,-3.475,-3.4704,-3.4705,-3.4698,-3.4695,-3.4698,-3.4759,-3.476,-3.4762,-3.4763,0,-3.4412,-3.441,-3.4445,-3.448,-3.4509,-3.4536,-3.456,-3.4581,-3.4577,-3.4606,-3.4647,-3.467,-3.4716,-3.4753,-3.4785,-3.4796,-3.4778,-3.4777,-3.4789,-3.4792,-3.479,-3.479,-3.4639,-3.4773,-3.4772,-3.4772,-3.4771,-3.477,-3.4499,-3.4534,-3.4556,-3.4595,-3.4613,-3.4637,-3.467,-3.4677,-3.4711,-3.4748,-3.4742,-3.4787,-3.4807,-3.4849,-3.4863,-3.4897,-3.4878,-3.4896,-3.49,-3.4904,-3.4909,-3.4785,-3.4903,-3.4902,-3.4902,-3.4902,-3.4902,0,-3.4618,-3.4631,-3.4667,-3.4702,-3.4733,-3.4714,-3.474,-3.4766,-3.4806,-3.4827,-3.4857,-3.4903,-3.4938,-3.4948,-3.4982,-3.5007,-3.4999,-3.5016,-3.5013,-3.5016,-3.4924,-3.491,-3.5021,-3.5021,-3.5021,-3.5021,-3.5021,-3.5021,-3.4684,-3.4742,-3.4743,-3.4809,-3.4821,-3.4866,-3.4882,-3.4902,-3.4919,-3.4971,-3.5001,-3.5007,-3.5022,-3.5057,-3.5088,-3.509,-3.5103,-3.5122,-3.512,-3.5034,-3.5022,-3.5011,-3.4997,-3.5125,-3.5125,-3.5209,-3.521,-3.521]}]]